Weather History for KEYE - November, 2013

Change the Weather History Date:

Monday, November 25, 2013

  Actual Average Record
Temperature  
Mean Temperature 26 °F 40 °F  
Max Temperature 33 °F 47 °F - ()
Min Temperature 19 °F 33 °F - ()
Degree Days  
Heating Degree Days 39 25  
Month to date heating degree days 592 498  
Since 1 July heating degree days 1005 890  
Cooling Degree Days 0 0  
Month to date cooling degree days 0 0  
Year to date cooling degree days 1006 1058  
Moisture  
Dew Point 13 °F    
Average Humidity 55    
Maximum Humidity 68    
Minimum Humidity 41    
Precipitation  
Precipitation 0.00 in 0.12 in - ()
Month to date precipitation 2.13 3.11  
Year to date precipitation 38.18 37.12  
Sea Level Pressure  
Sea Level Pressure 30.31 in    
Wind  
Wind Speed 7 mph (SSW)    
Max Wind Speed 15 mph    
Max Gust Speed 20 mph    
Visibility 10 miles    
Events      
T = Trace of Precipitation, MM = Missing Value Source: NWS Daily Summary

Daily Weather History Graph

Daily Weather History Graph

Search for Another Location

Airport or City:

Trip Planner

Search our weather history database for the weather conditions in past years. The results will help you decide how hot, cold, wet, or windy it might be!

Date:

Astronomy

Nov. 25, 2013 Rise Set
Actual Time 7:41 AM EST 5:22 PM EST
Civil Twilight 7:11 AM EST 5:52 PM EST
Nautical Twilight 6:38 AM EST 6:25 PM EST
Astronomical Twilight 6:06 AM EST 6:58 PM EST
Moon No Moon Rise 12:58 PM EST (11/25)
Length of Visible Light 10h 40m
Length of Day
9h 41m
Waning Gibbous, 51% of the Moon is Illuminated
Nov 25
Waning Gibbous
Nov 25
Last Quarter
Dec 2
New
Dec 9
First Quarter
Dec 17
Full

Hourly Weather History & Observations

Time (EST) Temp. Windchill Dew Point Humidity Pressure Visibility Wind Dir Wind Speed Gust Speed Precip Events Conditions
12:53 AM 19.9 °F 14.9 °F 10.9 °F 68% 30.51 in 10.0 mi South 3.5 mph - N/A   Clear
1:53 AM 19.9 °F 14.9 °F 10.0 °F 65% 30.48 in 10.0 mi South 3.5 mph - N/A   Clear
2:53 AM 21.0 °F 14.6 °F 10.9 °F 65% 30.46 in 10.0 mi South 4.6 mph - N/A   Clear
3:53 AM 21.9 °F 12.5 °F 10.9 °F 63% 30.45 in 10.0 mi South 8.1 mph - N/A   Clear
4:53 AM 21.9 °F 14.5 °F 12.0 °F 66% 30.41 in 10.0 mi SSE 5.8 mph - N/A   Clear
5:53 AM 23.0 °F 17.0 °F 10.9 °F 60% 30.40 in 10.0 mi South 4.6 mph - N/A   Clear
6:53 AM 23.0 °F 15.8 °F 12.0 °F 63% 30.38 in 10.0 mi SSE 5.8 mph - N/A   Clear
7:53 AM 23.0 °F 18.4 °F 12.0 °F 63% 30.38 in 10.0 mi South 3.5 mph - N/A   Clear
8:53 AM 24.1 °F 15.2 °F 10.9 °F 57% 30.38 in 10.0 mi SSW 8.1 mph - N/A   Scattered Clouds
9:53 AM 25.0 °F 16.3 °F 10.9 °F 55% 30.35 in 10.0 mi South 8.1 mph - N/A   Overcast
10:53 AM 27.0 °F 18.7 °F 12.0 °F 53% 30.32 in 10.0 mi SSW 8.1 mph - N/A   Overcast
11:53 AM 28.9 °F 20.4 °F 10.9 °F 47% 30.30 in 10.0 mi SSW 9.2 mph - N/A   Overcast
12:53 PM 30.9 °F 22.8 °F 12.0 °F 46% 30.27 in 10.0 mi SSW 9.2 mph - N/A   Overcast
1:53 PM 30.9 °F 22.2 °F 12.0 °F 46% 30.25 in 10.0 mi SW 10.4 mph - N/A   Overcast
2:53 PM 33.1 °F 25.5 °F 12.9 °F 43% 30.23 in 10.0 mi SSW 9.2 mph - N/A   Overcast
3:53 PM 32.0 °F 24.8 °F 12.9 °F 45% 30.22 in 10.0 mi SSW 8.1 mph - N/A   Overcast
4:53 PM 33.1 °F 24.9 °F 14.0 °F 46% 30.24 in 10.0 mi SSW 10.4 mph - N/A   Overcast
5:53 PM 32.0 °F 23.6 °F 15.1 °F 50% 30.22 in 10.0 mi SSW 10.4 mph - N/A   Overcast
6:53 PM 32.0 °F 24.8 °F 16.0 °F 52% 30.22 in 10.0 mi SW 8.1 mph - N/A   Overcast
7:53 PM 32.0 °F 24.2 °F 17.1 °F 54% 30.24 in 10.0 mi SSW 9.2 mph - N/A   Overcast
8:53 PM 32.0 °F 24.8 °F 17.1 °F 54% 30.22 in 10.0 mi SW 8.1 mph - N/A   Overcast
9:53 PM 32.0 °F 25.6 °F 18.0 °F 56% 30.20 in 10.0 mi SSW 6.9 mph - N/A   Overcast
10:53 PM 32.0 °F 26.4 °F 18.0 °F 56% 30.18 in 10.0 mi SW 5.8 mph - N/A   Overcast
11:53 PM 30.9 °F 25.2 °F 19.9 °F 64% 30.20 in 10.0 mi SW 5.8 mph - N/A   Overcast